Date String (YYYY-MM-DD hh:mm:ss) UTC,Instrument flags,absolute air pressure of the measurement (hPa),sample flow rate (lpm),inlet stack bypass flow (lpm),air temperature of the measurement (°C),ambient temperature measured by the external sensor (°C),aerosol sample conditioner tube jacket temperature (°C),OPC LED temperature (°C),internal box temperature (°C),relative humidity of the measurement (%),span deviation,mass concentration of particles derived from Lorenz-Mie calculation of OPC scattering (μg/m³),mass concentration of particles derived from Lorenz-Mie calculation of OPC scattering (μg/m³),mass concentration of particles derived from Lorenz-Mie calculation of OPC scattering (μg/m³)
DateTimeUTC,F1_M11,P_M11,Q1_M11,Q2_M11,T1_M11,T2_M11,T3_M11,T4_M11,T5_M11,U1_M11,ZSPAN_M11,X2_M11,X0_M11,X1_M11
2024-05-31 19:00:00,SystemResetWarning,0830.9,5.00,000.00,029.9,029.1,000.0,038.3,031.7,023.9,0000.0,0007.79,0015.07,0007.07
2024-05-31 19:01:00,SystemResetWarning,0830.8,5.01,000.00,029.9,029.1,000.0,038.3,031.7,024.3,0000.0,0007.81,0014.84,0007.10
2024-05-31 19:02:00,SystemResetWarning,0830.7,5.01,000.00,029.9,029.1,000.0,038.3,031.7,024.4,0000.0,0007.82,0014.96,0007.11
2024-05-31 19:03:00,SystemResetWarning,0830.7,4.99,000.00,029.9,029.1,000.0,038.3,031.7,024.4,0000.0,0007.83,0015.01,0007.10
2024-05-31 19:04:00,SystemResetWarning,0830.8,4.99,000.00,029.9,029.1,000.0,038.3,031.7,024.5,0000.0,0007.84,0015.50,0007.09
2024-05-31 19:05:00,SystemResetWarning,0830.8,4.99,000.00,029.9,029.1,000.0,038.3,031.7,024.1,0000.2,0007.87,0015.39,0007.09
2024-05-31 19:06:00,SystemResetWarning,0830.8,5.01,000.00,029.9,029.1,000.0,038.3,031.7,023.9,0000.0,0007.91,0014.91,0007.12
2024-05-31 19:07:00,SystemResetWarning,0830.7,5.01,000.00,029.9,029.1,000.0,038.4,031.7,023.9,0000.0,0007.94,0015.58,0007.14
2024-05-31 19:08:00,SystemResetWarning,0830.7,5.00,000.00,029.9,029.1,000.0,038.3,031.6,024.0,0000.3,0007.96,0015.37,0007.16
2024-05-31 19:09:00,SystemResetWarning,0830.7,4.99,000.00,029.9,029.1,000.0,038.3,031.7,024.2,0001.3,0008.01,0015.02,0007.17
2024-05-31 19:10:00,SystemResetWarning,0830.7,5.00,000.00,029.9,029.1,000.0,038.3,031.7,024.3,0001.4,0008.02,0014.72,0007.15
2024-05-31 19:11:00,SystemResetWarning,0830.7,5.00,000.00,029.9,029.1,000.0,038.3,031.7,023.9,0001.2,0008.04,0014.59,0007.17
2024-05-31 19:12:00,SystemResetWarning,0830.7,5.00,000.00,029.9,029.1,000.0,038.3,031.7,024.1,0000.8,0008.07,0015.75,0007.21
2024-05-31 19:13:00,SystemResetWarning,0830.7,5.00,000.00,029.9,029.1,000.0,038.3,031.7,024.9,0001.4,0008.11,0015.67,0007.23
2024-05-31 19:14:00,SystemResetWarning,0830.7,5.00,000.00,029.9,029.1,000.0,038.3,031.7,024.4,0000.9,0008.13,0015.53,0007.23
2024-05-31 19:15:00,SystemResetWarning,0830.7,5.00,000.00,029.9,029.1,000.0,038.3,031.7,024.5,0001.4,0008.14,0015.66,0007.25
2024-05-31 19:16:00,SystemResetWarning,0830.7,5.00,000.00,029.9,029.1,000.0,038.3,031.7,024.6,0001.6,0008.13,0015.90,0007.26
2024-05-31 19:17:00,SystemResetWarning,0830.7,5.00,000.00,029.9,029.1,000.0,038.3,031.7,024.2,0001.3,0008.06,0015.78,0007.24
2024-05-31 19:18:00,SystemResetWarning,0830.7,5.01,000.00,029.9,029.2,000.0,038.3,031.7,024.3,0001.2,0008.04,0014.74,0007.24
2024-05-31 19:19:00,SystemResetWarning,0830.7,5.00,000.00,029.9,029.2,000.0,038.3,031.7,024.7,0001.2,0008.06,0014.88,0007.25
2024-05-31 19:20:00,SystemResetWarning,0830.7,4.99,000.00,030.0,029.2,000.0,038.4,031.7,025.2,0001.6,0008.02,0014.94,0007.21
2024-05-31 19:21:00,SystemResetWarning,0830.6,4.99,000.00,030.0,029.2,000.0,038.4,031.7,024.8,0001.0,0007.97,0015.23,0007.17
2024-05-31 19:22:00,SystemResetWarning,0830.6,5.01,000.00,030.0,029.2,000.0,038.4,031.8,024.3,0001.2,0007.97,0015.38,0007.15
2024-05-31 19:23:00,SystemResetWarning,0830.6,5.01,000.00,030.0,029.2,000.0,038.4,031.7,024.9,0001.6,0007.96,0014.44,0007.13
2024-05-31 19:24:00,SystemResetWarning,0830.6,4.99,000.00,030.0,029.2,000.0,038.4,031.7,024.3,0001.0,0007.90,0014.12,0007.06
2024-05-31 19:25:00,SystemResetWarning,0830.6,4.98,000.00,030.0,029.2,000.0,038.4,031.7,024.1,0000.9,0007.93,0014.34,0007.06
2024-05-31 19:26:00,SystemResetWarning,0830.6,5.01,000.00,030.0,029.2,000.0,038.4,031.8,024.3,0000.7,0007.95,0014.03,0007.05
2024-05-31 19:27:00,SystemResetWarning,0830.6,5.01,000.00,030.0,029.2,000.0,038.4,031.8,024.7,0000.9,0007.97,0014.59,0007.03
2024-05-31 19:28:00,SystemResetWarning,0830.6,5.00,000.00,030.0,029.2,000.0,038.4,031.8,025.0,0000.9,0008.00,0015.06,0007.02
2024-05-31 19:29:00,SystemResetWarning,0830.6,4.99,000.00,030.0,029.2,000.0,038.4,031.8,024.3,0000.6,0007.99,0015.07,0006.99
2024-05-31 19:30:00,SystemResetWarning,0830.6,5.00,000.00,030.0,029.2,000.0,038.4,031.8,024.4,0000.2,0007.93,0014.97,0006.94
2024-05-31 19:31:00,SystemResetWarning,0830.5,5.00,000.00,030.0,029.2,000.0,038.4,031.7,024.6,0000.0,0007.91,0015.72,0006.94
2024-05-31 19:32:00,SystemResetWarning,0830.4,5.00,000.00,030.0,029.2,000.0,038.4,031.8,024.4,-000.1,0007.95,0016.11,0006.98
2024-05-31 19:33:00,SystemResetWarning,0830.6,4.99,000.00,030.0,029.2,000.0,038.4,031.8,024.6,0000.0,0007.95,0016.10,0006.99
2024-05-31 19:34:00,SystemResetWarning,0830.6,5.00,000.00,030.0,029.2,000.0,038.4,031.8,024.9,0000.0,0007.92,0016.05,0006.99
2024-05-31 19:35:00,SystemResetWarning,0830.6,5.00,000.00,030.0,029.2,000.0,038.4,031.8,024.6,0000.0,0007.98,0016.15,0007.02
2024-05-31 19:36:00,SystemResetWarning,0830.7,5.00,000.00,030.0,029.2,000.0,038.4,031.8,024.7,0000.3,0007.99,0015.88,0007.03
2024-05-31 19:37:00,SystemResetWarning,0830.5,5.00,000.00,030.0,029.3,000.0,038.4,031.8,025.0,-000.2,0007.95,0015.31,0007.03
2024-05-31 19:38:00,SystemResetWarning,0830.5,5.00,000.00,030.0,029.3,000.0,038.4,031.8,024.9,-000.0,0007.92,0016.01,0007.02
2024-05-31 19:39:00,SystemResetWarning,0830.6,5.00,000.00,030.0,029.3,000.0,038.4,031.8,025.2,0000.2,0007.89,0015.73,0007.04
2024-05-31 19:40:00,SystemResetWarning,0830.6,4.99,000.00,030.0,029.3,000.0,038.4,031.8,025.6,0001.0,0007.89,0016.15,0007.04
2024-05-31 19:41:00,SystemResetWarning,0830.4,5.00,000.00,030.1,029.3,000.0,038.4,031.8,025.4,0001.5,0007.88,0016.75,0007.02
2024-05-31 19:42:00,SystemResetWarning,0830.5,5.00,000.00,030.1,029.3,000.0,038.5,031.9,025.4,0001.7,0007.86,0016.02,0007.02
2024-05-31 19:43:00,SystemResetWarning,0830.5,5.00,000.00,030.1,029.3,000.0,038.5,031.9,024.5,0001.7,0007.88,0016.21,0007.03
2024-05-31 19:44:00,SystemResetWarning,0830.5,5.00,000.00,030.1,029.3,000.0,038.5,031.9,024.4,0001.9,0007.90,0015.97,0007.07
2024-05-31 19:45:00,SystemResetWarning,0830.4,5.01,000.00,030.1,029.3,000.0,038.5,031.9,024.7,0002.2,0007.95,0016.55,0007.11
2024-05-31 19:46:00,SystemResetWarning,0830.4,5.00,000.00,030.1,029.3,000.0,038.5,031.9,024.7,0002.2,0007.99,0017.04,0007.16
2024-05-31 19:47:00,SystemResetWarning,0830.4,4.99,000.00,030.1,029.4,000.0,038.5,031.9,024.7,0002.0,0007.99,0017.06,0007.18
2024-05-31 19:48:00,SystemResetWarning,0830.4,5.00,000.00,030.1,029.4,000.0,038.5,031.9,024.8,0002.4,0007.99,0017.17,0007.20
2024-05-31 19:49:00,SystemResetWarning,0830.5,5.00,000.00,030.1,029.4,000.0,038.5,031.9,024.7,0002.2,0008.03,0016.04,0007.22
2024-05-31 19:50:00,SystemResetWarning,0830.4,5.00,000.00,030.1,029.4,000.0,038.5,031.9,024.7,0002.1,0008.05,0016.39,0007.22
2024-05-31 19:51:00,SystemResetWarning,0830.4,4.99,000.00,030.2,029.4,000.0,038.5,031.9,025.2,0001.7,0008.09,0017.32,0007.26
2024-05-31 19:52:00,SystemResetWarning,0830.4,4.99,000.00,030.2,029.4,000.0,038.5,031.9,024.7,0001.2,0008.11,0017.16,0007.29
2024-05-31 19:53:00,SystemResetWarning,0830.3,5.01,000.00,030.2,029.4,000.0,038.5,031.9,024.5,0001.3,0008.18,0017.69,0007.34
2024-05-31 19:54:00,SystemResetWarning,0830.3,5.01,000.00,030.2,029.4,000.0,038.5,031.9,024.8,0001.8,0008.27,0017.22,0007.39
2024-05-31 19:55:00,SystemResetWarning,0830.3,5.00,000.00,030.2,029.4,000.0,038.5,031.9,024.7,0001.9,0008.30,0018.38,0007.39
2024-05-31 19:56:00,SystemResetWarning,0830.3,5.00,000.00,030.2,029.4,000.0,038.5,032.0,024.7,0001.4,0008.28,0018.60,0007.37
2024-05-31 19:57:00,SystemResetWarning,0830.3,5.00,000.00,030.2,029.4,000.0,038.5,032.0,024.7,0001.1,0008.23,0018.68,0007.35
2024-05-31 19:58:00,SystemResetWarning,0830.3,5.00,000.00,030.2,029.5,000.0,038.6,032.0,025.0,0001.7,0008.24,0019.32,0007.34
2024-05-31 19:59:00,SystemResetWarning,0830.3,5.00,000.00,030.2,029.5,000.0,038.6,032.0,024.7,0001.9,0008.23,0019.10,0007.34
